KC1DMA Weather Reports


time (UTC)temp
C
wind
direction
speed
KPH
gust
KPH
rain 1hr
cm
rain 24hr
cm
rain mn
cm
humidity
%
barometer
mb
20260504194623 20 151 8.0 24.1 0.00 0.00 0.00 40 1011.0
20260504194119 20 190 11.3 16.1 0.00 0.00 0.00 39 1011.0
20260504193615 20 186 6.4 16.1 0.00 0.00 0.00 41 1011.0
20260504193114 19 151 16.1 20.9 0.00 0.00 0.00 39 1010.9
20260504192612 19 45 4.8 20.9 0.00 0.00 0.00 40 1011.2
20260504192109 19 161 4.8 20.9 0.00 0.00 0.00 40 1011.2
20260504191608 20 78 9.7 11.3 0.00 0.00 0.00 39 1011.2
20260504191103 20 243 6.4 16.1 0.00 0.00 0.00 38 1011.2
20260504190600 20 180 6.4 20.9 0.00 0.00 0.00 39 1011.0
20260504190056 20 183 9.7 19.3 0.00 0.00 0.00 38 1011.3
20260504185553 20 134 11.3 14.5 0.00 0.00 0.00 38 1011.2
20260504185050 20 224 1.6 14.5 0.00 0.00 0.00 37 1011.2
20260504184545 20 175 3.2 17.7 0.00 0.00 0.00 37 1011.2
20260504184040 20 216 3.2 22.5 0.00 0.00 0.00 37 1011.4
20260504183538 21 157 9.7 12.9 0.00 0.00 0.00 37 1011.3
20260504183036 20 44 3.2 9.7 0.00 0.00 0.00 38 1011.4
20260504182532 20 171 3.2 16.1 0.00 0.00 0.00 37 1011.4
20260504182030 20 165 4.8 11.3 0.00 0.00 0.00 38 1011.6
20260504181527 20 213 8.0 9.7 0.00 0.00 0.00 39 1011.4
20260504181025 20 111 9.7 16.1 0.00 0.00 0.00 36 1011.7
20260504180524 20 261 3.2 14.5 0.00 0.00 0.00 39 1011.7
20260504180022 20 61 3.2 17.7 0.00 0.00 0.00 36 1012.1
20260504175519 20 196 12.9 19.3 0.00 0.00 0.00 37 1011.9
20260504175016 20 142 1.6 9.7 0.00 0.00 0.00 37 1011.7
20260504174514 20 220 6.4 9.7 0.00 0.00 0.00 34 1011.8
20260504174011 20 63 1.6 6.4 0.00 0.00 0.00 35 1011.9
20260504173507 20 183 4.8 8.0 0.00 0.00 0.00 38 1012.2
20260504173005 19 205 6.4 11.3 0.00 0.00 0.00 36 1012.0
20260504172500 20 263 11.3 14.5 0.00 0.00 0.00 36 1012.1
20260504171957 18 291 12.9 29.0 0.00 0.00 0.00 35 1012.0
20260504171454 18 97 8.0 9.7 0.00 0.00 0.00 36 1012.0
20260504170951 18 272 16.1 20.9 0.00 0.00 0.00 34 1012.1
20260504170447 18 307 14.5 19.3 0.00 0.00 0.00 36 1012.1
20260504160407 18 205 4.8 11.3 0.00 0.00 0.00 35 1012.6
20260504150831 17 275 8.0 16.1 0.00 0.00 0.00 36 1013.2
20260504150328 17 275 8.0 16.1 0.00 0.00 0.00 36 1013.3
20260504141258 16 317 11.3 12.9 0.00 0.00 0.00 39 1013.9
20260504140754 16 144 3.2 11.3 0.00 0.00 0.00 37 1013.9
20260504140250 16 284 16.1 20.9 0.00 0.00 0.00 38 1014.1
20260504130719 14 142 3.2 8.0 0.00 0.00 0.00 47 1014.4
20260504130214 13 169 4.8 11.3 0.00 0.00 0.00 46 1014.5
20260504120139 11 228 0.0 3.2 0.00 0.00 0.00 51 1015.0
20260504110606 8 137 8.0 9.7 0.00 0.00 0.00 57 1014.8
20260504100533 7 137 6.4 11.3 0.00 0.00 0.00 58 1014.2
20260504081927 8 158 3.2 3.2 0.00 0.00 0.00 52 1013.7
20260504081424 8 158 3.2 3.2 0.00 0.00 0.00 52 1013.8
20260504080920 8 158 3.2 3.2 0.00 0.00 0.00 52 1014.0
20260504080417 8 158 3.2 3.2 0.00 0.00 0.00 52 1013.8
20260504070344 -17 0.0 0.0 0.00 0.00 0.00 1013.8
20260504050732 -17 0.0 0.0 0.00 0.00 0.00 1013.6
20260504050229 -17 0.0 0.0 0.00 0.00 0.00 1013.5
20260504045726 -17 0.0 0.0 0.00 0.00 0.00 1013.6
20260504045221 -17 0.0 0.0 0.00 0.00 0.00 1013.7
20260504044719 -17 0.0 0.0 0.00 0.00 0.00 1013.8
20260504044217 -17 0.0 0.0 0.00 0.00 0.00 1013.9
20260504043713 -17 0.0 0.0 0.00 0.00 0.00 1013.7
20260504043210 -17 0.0 0.0 0.00 0.00 0.00 1013.6
20260504042708 -17 0.0 0.0 0.00 0.00 0.00 1013.5
20260504042204 -17 0.0 0.0 0.00 0.00 0.00 1013.6
20260504041700 -17 0.0 0.0 0.00 0.00 0.00 1013.6
20260504041155 -17 0.0 0.0 0.00 0.00 0.00 1013.5
20260504040653 -17 0.0 0.0 0.00 0.00 0.00 1013.7
20260504040150 -17 0.0 0.0 0.00 0.00 0.00 1013.4
20260504035646 -17 0.0 0.0 0.00 0.00 0.00 1013.5
20260504035143 -17 0.0 0.0 0.00 0.00 0.00 1013.5
20260504034641 -17 0.0 0.0 0.00 0.00 0.00 1013.3
20260504034138 -17 0.0 0.0 0.00 0.00 0.00 1013.4
20260504033635 -17 0.0 0.0 0.00 0.00 0.00 1013.3
20260504033133 -17 0.0 0.0 0.00 0.00 0.00 1013.3
20260504032629 -17 0.0 0.0 0.00 0.00 0.00 1013.3
20260504032126 -17 0.0 0.0 0.00 0.00 0.00 1013.4
20260504031623 -17 0.0 0.0 0.00 0.00 0.00 1013.2
20260504031119 -17 0.0 0.0 0.00 0.00 0.00 1013.3
20260504030617 -17 0.0 0.0 0.00 0.00 0.00 1013.4
20260504030114 -17 0.0 0.0 0.00 0.00 0.00 1013.4
20260504025611 -17 0.0 0.0 0.00 0.00 0.00 1013.2
20260504025108 -17 0.0 0.0 0.00 0.00 0.00 1013.3
20260504024605 -17 0.0 0.0 0.00 0.00 0.00 1013.4
20260504024101 -17 0.0 0.0 0.00 0.00 0.00 1013.2
20260504023557 -17 0.0 0.0 0.00 0.00 0.00 1013.3
20260504023053 -17 0.0 0.0 0.00 0.00 0.00 1013.2
20260504022550 -17 0.0 0.0 0.00 0.00 0.00 1013.3
20260504022046 -17 0.0 0.0 0.00 0.00 0.00 1013.3
20260504021543 -17 0.0 0.0 0.00 0.00 0.00 1013.2
20260504021040 -17 0.0 0.0 0.00 0.00 0.00 1013.3
20260504020537 -17 0.0 0.0 0.00 0.00 0.00 1013.2
20260504020034 -17 0.0 0.0 0.00 0.00 0.00 1013.1
20260504015531 7 117 3.2 4.8 0.00 0.00 0.00 56 1012.9
20260504015027 7 117 3.2 4.8 0.00 0.00 0.00 56 1013.1
20260504014523 7 117 3.2 4.8 0.00 0.00 0.00 56 1013.1
20260504014020 7 117 3.2 4.8 0.00 0.00 0.00 56 1012.9
20260504013518 7 117 3.2 4.8 0.00 0.00 0.00 56 1013.0
20260504013015 7 117 3.2 4.8 0.00 0.00 0.00 56 1012.8
20260504012512 7 117 3.2 4.8 0.00 0.00 0.00 56 1012.8
20260504012009 7 117 3.2 4.8 0.00 0.00 0.00 56 1012.8
20260504011506 7 117 3.2 4.8 0.00 0.00 0.00 56 1012.7
20260504011001 7 117 3.2 4.8 0.00 0.00 0.00 56 1012.8
20260504010458 7 117 3.2 4.8 0.00 0.00 0.00 56 1012.7
20260504005953 7 117 3.2 4.8 0.00 0.00 0.00 56 1012.6
20260504005450 7 127 3.2 3.2 0.00 0.00 0.00 55 1012.4
20260504004948 7 127 3.2 3.2 0.00 0.00 0.00 55 1012.3
20260504004446 7 121 4.8 4.8 0.00 0.00 0.00 54 1012.1
20260504003943 7 117 3.2 4.8 0.00 0.00 0.00 53 1012.0
20260504003438 8 104 3.2 3.2 0.00 0.00 0.00 53 1012.1
20260504002935 8 106 3.2 3.2 0.00 0.00 0.00 52 1011.9
20260504002432 8 120 3.2 4.8 0.00 0.00 0.00 54 1011.8
20260504001930 9 93 4.8 4.8 0.00 0.00 0.00 45 1011.7
20260504001427 9 93 4.8 4.8 0.00 0.00 0.00 45 1011.9
20260504000924 9 93 4.8 4.8 0.00 0.00 0.00 45 1011.7
20260504000423 9 93 4.8 4.8 0.00 0.00 0.00 45 1011.7
20260503235918 10 111 3.2 3.2 0.00 0.00 0.00 43 1011.6
20260503235416 10 85 3.2 3.2 0.00 0.00 0.00 40 1011.6
20260503234913 11 53 0.0 0.0 0.00 0.00 0.00 37 1011.5
20260503234411 11 53 0.0 1.6 0.00 0.00 0.00 38 1011.4
20260503233908 11 289 4.8 4.8 0.00 0.00 0.00 37 1011.6
20260503233405 11 12 3.2 6.4 0.00 0.00 0.00 37 1011.4
20260503232901 11 237 3.2 6.4 0.00 0.00 0.00 37 1011.3
20260503232358 12 289 3.2 6.4 0.00 0.00 0.00 36 1011.2
20260503231856 12 316 3.2 9.7 0.00 0.00 0.00 37 1011.4
20260503231353 12 262 3.2 8.0 0.00 0.00 0.00 35 1011.4
20260503230849 12 312 6.4 9.7 0.00 0.00 0.00 34 1011.3
20260503230346 12 262 6.4 11.3 0.00 0.00 0.00 35 1011.3
20260503225844 12 10 3.2 9.7 0.00 0.00 0.00 35 1011.2
20260503225339 12 3 9.7 11.3 0.00 0.00 0.00 35 1011.2
20260503224836 12 235 4.8 14.5 0.00 0.00 0.00 34 1011.2
20260503224333 12 294 8.0 12.9 0.00 0.00 0.00 34 1011.2
20260503223832 12 337 3.2 9.7 0.00 0.00 0.00 34 1011.0
20260503223329 12 288 14.5 22.5 0.00 0.00 0.00 35 1011.2
20260503222824 12 296 4.8 11.3 0.00 0.00 0.00 36 1011.2
20260503222323 12 350 8.0 16.1 0.00 0.00 0.00 35 1010.9
20260503221820 12 334 8.0 20.9 0.00 0.00 0.00 35 1010.9
20260503221319 12 18 3.2 9.7 0.00 0.00 0.00 38 1010.8
20260503220814 12 295 9.7 14.5 0.00 0.00 0.00 35 1011.0
20260503220312 12 318 4.8 6.4 0.00 0.00 0.00 35 1010.9
20260503215808 12 288 4.8 9.7 0.00 0.00 0.00 35 1011.0
20260503215305 12 234 4.8 17.7 0.00 0.00 0.00 35 1010.9
20260503214803 12 279 6.4 14.5 0.00 0.00 0.00 36 1011.0
20260503214300 12 297 19.3 24.1 0.00 0.00 0.00 35 1011.2
20260503213758 12 294 6.4 17.7 0.00 0.00 0.00 36 1010.8
20260503213255 12 295 20.9 25.7 0.00 0.00 0.00 36 1011.0
20260503212752 12 279 16.1 25.7 0.00 0.00 0.00 36 1011.0
20260503212249 12 287 8.0 11.3 0.00 0.00 0.00 37 1011.2
20260503211747 12 259 9.7 14.5 0.00 0.00 0.00 36 1011.2
20260503211243 12 324 9.7 11.3 0.00 0.00 0.00 36 1010.9
20260503210738 11 301 12.9 19.3 0.00 0.00 0.00 36 1010.8
20260503210236 12 339 3.2 6.4 0.00 0.00 0.00 39 1010.9
20260503205731 12 318 19.3 25.7 0.00 0.00 0.00 36 1010.9
20260503205227 12 330 20.9 22.5 0.00 0.00 0.00 37 1010.8
20260503204724 12 338 20.9 29.0 0.00 0.00 0.00 37 1011.0
20260503204222 11 334 12.9 22.5 0.00 0.00 0.00 37 1010.8
20260503203719 -17 280 48.3 72.4 0.00 0.00 0.00 1010.9
20260503203216 11 282 9.7 17.7 0.00 0.00 0.00 40 1010.6
20260503202714 12 101 3.2 11.3 0.00 0.00 0.00 37 1010.8
20260503202212 11 306 16.1 33.8 0.00 0.00 0.00 38 1010.8
20260503201709 11 259 11.3 30.6 0.00 0.00 0.00 38 1010.9
20260503201206 10 289 17.7 24.1 0.00 0.00 0.00 38 1010.8
20260503200703 10 298 17.7 25.7 0.00 0.00 0.00 38 1010.8
20260503200159 11 10 19.3 20.9 0.00 0.00 0.00 38 1010.8
20260503195656 11 273 11.3 32.2 0.00 0.00 0.00 39 1010.9
20260503195153 11 326 14.5 20.9 0.00 0.00 0.00 40 1010.8